[Date Prev][Date Next][Thread Prev][Thread Next] - [Date Index][Thread Index][Author Index]
2 Line ISS 5-6
- Subject: [sarex] 2 Line ISS 5-6
- From: "Dr Dave Larsen [ PhD ]" <doc@xxxxxxxxxxx>
- Date: Sun, 6 May 2001 06:38:03 -0700
ISS
1 25544U 98067A 01126.48783442 .00045780 00000-0 57579-3 0 9417
2 25544 51.5719 298.8999 0017055 18.0050 94.1454 15.59025081140565
----
Via the sarex mailing list at AMSAT.ORG courtesy of AMSAT-NA.
To unsubscribe, send "unsubscribe sarex" to Majordomo@amsat.org
AMSAT Home